{"data":{"norad_id":59361,"intl_designator":"2024-060P","name":"STARLINK-31560","alt_names":[],"object_type":"PAYLOAD","status":"ACTIVE","operator":null,"country":"US","launch_date":"2024-03-31","launch_site_code":"AFETR","launch_vehicle":null,"mission":null,"orbit_class":"UNKNOWN","rcs_meters":null,"size_class":null,"mass_kg":null,"dimensions":null,"purposes":["comms"],"wikipedia_slug":null,"has_3d_model":false,"image_url":null,"decayed_at":null,"tle_current":{"epoch":"2026-09-21T14:30:30.682656Z","epoch_age_seconds":66892,"freshness":"FRESH","line1":"1 59361U 24060P   26264.60452179 -.00000757  00000+0 -18009-4 0  9992","line2":"2 59361  42.9985 233.5840 0001138 275.7070  84.3652 15.27566456140021","mean_motion":15.27566456,"eccentricity":0.0001138,"inclination_deg":42.9985,"raan_deg":233.584,"arg_perigee_deg":275.707,"mean_anomaly_deg":84.3652,"bstar":-1.8009e-5,"rev_number":14002,"period_min":94.267584519413,"perigee_km":482.30884435474,"apogee_km":483.87045954073,"semimajor_km":6861.2266519477,"source":"CELESTRAK","updated_at":"2026-09-22T09:00:48.905572Z"}}}